[[{"header":{"parameterUnit":"m.s-1","parameterCategory":2,"la1":30.2991,"la2":30.254,"lo1":-89.0895,"lo2":-89.0444,"dy":0.0017,"dx":0.0017,"nx":28,"ny":28,"refTime":"2024-07-19T03:00:00:Z","depth":"0","parameterNumber":2,"parameterNumberName":"U-component_of_CURRENTS"},"data":[0,0,0,0,0,0,0,0,0,0,0,0,0,0,0,0,0,0,0,0,0,0,0,0,0,0,0,0,0,0,0,0,0,0,0,0,0,0,0,0,0,0,0,0,0,0,0,0,0,0,0,0,0,0,0,0,0,0,0.3823,0.3823,0,0.384,0.384,0.3839,0.3847,0.3848,0.3848,0.3848,0.3847,0.3847,0.3847,0,0,0,0,0,0,0,0,0,0,0,0,0,0.3791,0.3791,0.3822,0.3823,0.3824,0.384,0.384,0.3839,0.3847,0.3848,0.3848,0.3848,0.3847,0.3847,0.3847,0,0,0,0,0,0,0,0,0,0,0,0,0,0.3802,0.3791,0.3822,0.3833,0.3834,0.384,0.384,0.3839,0.3847,0.3848,0.3848,0.3849,0.3848,0.3847,0.3846,0.3832,0,0,0.3845,0.3844,0,0,0,0,0,0,0,0,0.3801,0.3802,0.3831,0.3832,0.3834,0.3846,0.3828,0.3837,0.3847,0.3837,0.3848,0.3849,0.3847,0.3847,0.3843,0.3831,0.3831,0.3845,0.3844,0.3844,0.3844,0,0,0,0,0,0,0,0.38,0.3802,0.3825,0.3831,0.3833,0.3835,0.3837,0.383,0.3835,0.3838,0.384,0.3849,0.3848,0.3843,0.3843,0.3831,0.3845,0.3844,0.3844,0.3844,0.3883,0.3885,0,0,0,0,0,0,0.3807,0.3801,0.3824,0.3826,0.3823,0.3835,0.3837,0.3838,0.3836,0.3838,0.3848,0.3849,0.3844,0.3844,0.3843,0.3896,0.3844,0.3844,0.3843,0.3882,0.3884,0.3885,0,0,0,0,0,0,0.3806,0.3808,0.3824,0.3818,0.382,0.3836,0.3836,0.3838,0.3846,0.3844,0.3845,0.3857,0.3845,0.3844,0.3867,0.3893,0.3843,0.3843,0.388,0.3882,0.3884,0.3956,0,0,0,0,0,0,0.3805,0.3807,0.3806,0.3818,0.3821,0.3843,0.3836,0.3838,0.3852,0.3853,0.3851,0.3851,0.3845,0.3868,0.3866,0.3891,0.3842,0.3878,0.3881,0.3884,0.3952,0.396,0.3967,0,0,0,0,0,0.3803,0.38,0.3806,0.3809,0.382,0.3844,0.3846,0.3855,0.3852,0.3862,0.3871,0.3852,0.3883,0.3869,0.3867,0.3892,0.3877,0.388,0.3883,0.3948,0.3958,0.3967,0,0,0,0,0,0,0.3791,0.3802,0.3808,0.381,0.3835,0.3847,0.3852,0.386,0.3872,0.3872,0.3868,0.3869,0.3905,0.3885,0.3869,0.3912,0.3877,0.388,0.3927,0.3937,0.3944,0.3972,0.3842,0,0,0,0,0,0.3788,0.3781,0.3809,0.381,0.3824,0.3839,0.3847,0.3858,0.3873,0.3879,0.388,0.3887,0.3912,0.3915,0.3926,0.3939,0.3995,0.3954,0.3962,0.3969,0.399,0.4147,0.4173,0.3895,0.3895,0.3895,0,0,0.3772,0.3787,0.3777,0.3806,0.3819,0.3847,0.3844,0.3864,0.3891,0.3876,0.3903,0.3917,0.3926,0.3957,0.3969,0.3944,0.4069,0.3973,0.3978,0.3997,0.4153,0.4181,0.4206,0.3898,0.3897,0.3897,0,0,0.3766,0.3766,0.3771,0.3797,0.3833,0.3849,0.386,0.3884,0.3901,0.3929,0.3942,0.3983,0.398,0.4018,0.4031,0.4086,0.4115,0.4072,0.4123,0.4275,0.4301,0.4324,0.4403,0.4432,0.4065,0.4065,0.4065,0,0.3755,0.3773,0.3779,0.3812,0.3839,0.3855,0.389,0.3907,0.3936,0.3972,0.3945,0.4027,0.402,0.411,0.4123,0.4107,0.4178,0.4086,0.4291,0.4315,0.4337,0.4413,0.4445,0.4069,0.4069,0.4068,0.4068,0,0.3769,0.3789,0.3798,0.3842,0.3871,0.3899,0.394,0.3972,0.3986,0.4016,0.4101,0.4116,0.4184,0.4171,0.4155,0.4302,0.4295,0.4296,0.4274,0.437,0.4442,0.4474,0.4075,0.4073,0.4072,0.4071,0,0,0.3732,0.3794,0.3798,0.3841,0.3893,0.3928,0.3981,0.4055,0.4137,0.4141,0.426,0.4274,0.4309,0.4329,0.4335,0.4424,0.4613,0.442,0.4426,0.451,0.4923,0.4797,0.4819,0.4671,0.4677,0.4682,0.49,0,0.3748,0.381,0.384,0.3909,0.395,0.3999,0.4068,0.4136,0.42,0.4315,0.4347,0.4451,0.4364,0.443,0.4511,0.462,0.4707,0.4552,0.4807,0.4813,0.4702,0.4856,0.471,0.4883,0.4931,0.4936,0.494,0,0.3763,0.3807,0.3872,0.3983,0.401,0.406,0.4208,0.4278,0.4425,0.4483,0.4583,0.4636,0.4767,0.4691,0.4912,0.4828,0.4882,0.4927,0.4938,0.4824,0.4749,0.48,0.4939,0.5016,0.499,0.4986,0.4982,0,0.3754,0.384,0.3896,0.3925,0.4042,0.4104,0.4184,0.4329,0.443,0.4623,0.4729,0.4875,0.4984,0.51,0.5139,0.5085,0.5371,0.5323,0.5245,0.5234,0.516,0.5131,0.5417,0.5497,0.5497,0.5496,0.5496,0,0.3771,0.3819,0.3901,0.3934,0.4049,0.4131,0.4289,0.4394,0.4579,0.4712,0.4832,0.4966,0.5103,0.5244,0.5267,0.5352,0.5489,0.5299,0.5315,0.517,0.5141,0.5237,0.523,0.5504,0.5502,0.5501,0.5499,0,0.3758,0.3803,0.3879,0.3995,0.4046,0.4134,0.4329,0.4442,0.4625,0.4819,0.4891,0.5107,0.5293,0.5379,0.5579,0.5512,0.549,0.5583,0.5351,0.5334,0.5289,0.5286,0.5116,0.4965,0.5582,0.5581,0.558,0,0.3764,0.3792,0.3905,0.395,0.4004,0.4143,0.4239,0.4438,0.455,0.487,0.4947,0.5207,0.5312,0.5542,0.5525,0.5585,0.5469,0.5464,0.5319,0.5315,0.5328,0.496,0.4819,0.5249,0.5245,0.5242,0.5239,0,0.3757,0.3781,0.3819,0.3921,0.4011,0.4111,0.4255,0.4354,0.4582,0.4731,0.4927,0.5059,0.5293,0.5322,0.5401,0.5387,0.5259,0.5397,0.5518,0.52,0.4701,0.4554,0.5032,0.5212,0.5215,0.5217,0.5218,0.5219,0.3724,0.3736,0.3775,0.3858,0.3954,0.4015,0.4034,0.4183,0.4313,0.4473,0.4726,0.483,0.5145,0.5234,0.5204,0.522,0.5026,0.5174,0.5205,0.4854,0.4599,0.4958,0.5064,0.5065,0.5067,0.5068,0.507,0,0.3692,0.3669,0.3718,0.3765,0.3792,0.3893,0.3978,0.3942,0.3982,0.4223,0.4337,0.4615,0.476,0.4994,0.5181,0.5117,0.4742,0.5086,0.4669,0.4567,0.5091,0.4978,0.4919,0.4919,0.4919,0.4919,0.4919,0.4919,0.364,0.3618,0.3613,0.3572,0.3606,0.3544,0.3533,0.3515,0.361,0.3722,0.3867,0.4057,0.4675,0.5192,0.5338,0.5211,0.4916,0.4621,0.4622,0.5234,0.5247,0.5259,0.5162,0.5141,0.5142,0.3846,0.3839,0.3833]},{"header":{"parameterUnit":"m.s-1","parameterCategory":2,"la1":30.2991,"la2":30.254,"lo1":-89.0895,"lo2":-89.0444,"dy":0.0017,"dx":0.0017,"nx":28,"ny":28,"refTime":"2024-07-19T03:00:00:Z","depth":"0","parameterNumber":3,"parameterNumberName":"V-component_of_CURRENTS"},"data":[0,0,0,0,0,0,0,0,0,0,0,0,0,0,0,0,0,0,0,0,0,0,0,0,0,0,0,0,0,0,0,0,0,0,0,0,0,0,0,0,0,0,0,0,0,0,0,0,0,0,0,0,0,0,0,0,0,0,0.0382,0.0381,0,0.0319,0.0318,0.0317,0.028,0.028,0.028,0.028,0.0194,0.0192,0.019,0,0,0,0,0,0,0,0,0,0,0,0,0,0.0386,0.0387,0.0382,0.0381,0.038,0.0319,0.0318,0.0317,0.028,0.028,0.028,0.0279,0.0195,0.0192,0.019,0,0,0,0,0,0,0,0,0,0,0,0,0,0.036,0.0387,0.0382,0.0355,0.0352,0.0319,0.0318,0.0317,0.028,0.028,0.028,0.0279,0.0196,0.0193,0.0189,0.0173,0,0,0.018,0.0178,0,0,0,0,0,0,0,0,0.0362,0.036,0.036,0.0357,0.0353,0.0307,0.0288,0.0268,0.028,0.0307,0.028,0.0279,0.023,0.0224,0.0213,0.0169,0.0166,0.0179,0.0177,0.0176,0.0175,0,0,0,0,0,0,0,0.0364,0.0362,0.0357,0.0359,0.0355,0.0317,0.0314,0.0284,0.027,0.0304,0.0302,0.0295,0.0228,0.0216,0.021,0.0164,0.0179,0.0177,0.0175,0.0173,0.0119,0.012,0,0,0,0,0,0,0.0377,0.0364,0.0359,0.0355,0.0357,0.0317,0.0314,0.0322,0.027,0.0263,0.0296,0.0294,0.0221,0.0214,0.0207,0.0214,0.0176,0.0173,0.0171,0.0119,0.0119,0.012,0,0,0,0,0,0,0.0378,0.0378,0.0361,0.0357,0.0352,0.0318,0.0327,0.0321,0.0311,0.0264,0.0256,0.0293,0.0221,0.0212,0.0189,0.0209,0.0172,0.0169,0.0118,0.0119,0.0119,0.0209,0,0,0,0,0,0,0.0378,0.0379,0.0384,0.0359,0.0353,0.0354,0.0327,0.032,0.0308,0.0305,0.0259,0.0251,0.022,0.0194,0.0186,0.0204,0.0166,0.0117,0.0118,0.0119,0.0206,0.0213,0.0219,0,0,0,0,0,0.0379,0.0399,0.0386,0.0384,0.0365,0.0355,0.0349,0.0322,0.0308,0.0312,0.0279,0.0253,0.0194,0.0192,0.0182,0.02,0.0117,0.0118,0.0119,0.0202,0.0211,0.0219,0,0,0,0,0,0,0.0406,0.0396,0.0381,0.0397,0.038,0.0349,0.0348,0.0328,0.0305,0.0303,0.0256,0.0246,0.0233,0.0202,0.02,0.0186,0.0152,0.0151,0.0219,0.0227,0.0234,0.027,0.0163,0,0,0,0,0,0.0414,0.0424,0.0405,0.0414,0.0411,0.0379,0.0369,0.0354,0.033,0.032,0.0287,0.0253,0.0229,0.0217,0.0186,0.0179,0.0156,0.0183,0.019,0.0196,0.0219,0.0215,0.0224,0.0123,0.0123,0.0123,0,0,0.0423,0.042,0.0423,0.0419,0.0403,0.0415,0.0373,0.0371,0.038,0.0314,0.0314,0.0272,0.023,0.0223,0.0215,0.0201,0.0206,0.0198,0.0204,0.0223,0.0217,0.0227,0.0236,0.0124,0.0124,0.0124,0,0,0.0458,0.0449,0.0473,0.0466,0.0454,0.044,0.0444,0.0419,0.041,0.04,0.0358,0.0333,0.0291,0.0271,0.0255,0.028,0.0239,0.0264,0.0334,0.033,0.0339,0.0346,0.0306,0.031,0.0273,0.0273,0.0273,0,0.0467,0.0502,0.0475,0.0499,0.0505,0.046,0.0492,0.0474,0.0444,0.0448,0.0414,0.037,0.032,0.033,0.0331,0.0298,0.0278,0.0309,0.0341,0.0349,0.0355,0.0312,0.0315,0.0278,0.0277,0.0277,0.0276,0,0.0525,0.0547,0.0562,0.0581,0.0582,0.06,0.0582,0.0581,0.0559,0.054,0.0536,0.0473,0.0458,0.0426,0.0383,0.0406,0.0369,0.0348,0.0328,0.0371,0.0322,0.0323,0.0284,0.0282,0.0281,0.028,0,0,0.057,0.0599,0.0607,0.0639,0.0633,0.0653,0.0667,0.0681,0.0723,0.0663,0.0712,0.0634,0.0603,0.0582,0.0526,0.0508,0.0506,0.0453,0.0451,0.0425,0.0477,0.0433,0.0429,0.0498,0.0499,0.05,0.0416,0,0.0627,0.07,0.0695,0.0766,0.0804,0.0779,0.0811,0.0812,0.0804,0.0835,0.0764,0.078,0.0663,0.0674,0.0633,0.0561,0.0518,0.0529,0.0429,0.0425,0.0392,0.0433,0.0454,0.0381,0.0417,0.0417,0.0417,0,0.0695,0.0739,0.0821,0.0887,0.0905,0.0943,0.101,0.1035,0.1044,0.1038,0.1022,0.0972,0.0938,0.084,0.0722,0.0739,0.0613,0.053,0.0525,0.0462,0.0386,0.0347,0.0382,0.022,0.0418,0.0418,0.0418,0,0.0764,0.0834,0.0913,0.093,0.0989,0.1037,0.1077,0.1103,0.1165,0.1187,0.1239,0.116,0.1161,0.1015,0.0807,0.0785,0.0667,0.0618,0.0444,0.0438,0.0426,0.0417,0.031,0.0522,0.0522,0.0522,0.0523,0,0.0839,0.0904,0.0961,0.1007,0.1132,0.1137,0.1274,0.1291,0.1361,0.1471,0.1367,0.1437,0.1209,0.1102,0.0888,0.0676,0.0723,0.0471,0.043,0.0452,0.0447,0.0281,0.0167,0.0519,0.052,0.052,0.0521,0,0.0909,0.0936,0.1035,0.1122,0.1169,0.1263,0.1413,0.1511,0.1554,0.1702,0.1725,0.1662,0.154,0.1268,0.1032,0.0801,0.0475,0.0481,0.0499,0.0461,0.017,0.0061,-0.0127,-0.0237,0.0315,0.0314,0.0313,0,0.0954,0.1011,0.1132,0.1209,0.1262,0.1406,0.1518,0.1602,0.1724,0.1854,0.1944,0.1864,0.1829,0.1439,0.1028,0.0645,0.044,0.0393,0.0352,0.0173,0.002,-0.0071,-0.0157,0.0351,0.035,0.035,0.0349,0,0.104,0.1075,0.1157,0.132,0.1449,0.1609,0.1779,0.1903,0.203,0.2157,0.2289,0.2274,0.1909,0.156,0.1009,0.0722,0.0279,0.0369,0.0201,0.006,-0.006,-0.0191,0.0353,0.0344,0.0345,0.0345,0.0345,0.0346,0.11,0.117,0.1277,0.1434,0.1595,0.1791,0.1936,0.2128,0.234,0.2556,0.2527,0.2565,0.2107,0.1384,0.0906,0.0222,0.021,0.006,-0.0057,-0.013,-0.0236,0.0277,0.0213,0.0213,0.0213,0.0213,0.0213,0,0.1185,0.1253,0.139,0.1577,0.1767,0.1841,0.2102,0.2265,0.2529,0.2741,0.2851,0.274,0.2047,0.1382,0.0455,-0.0084,-0.0309,-0.0326,-0.0433,-0.0501,-0.0013,-0.0007,-0.0139,-0.0139,-0.0139,-0.0138,-0.0138,-0.0138,0.1218,0.1346,0.1409,0.1691,0.1842,0.2096,0.2245,0.249,0.27,0.3025,0.3166,0.3238,0.3055,0.1201,-0.001,-0.0385,-0.0776,-0.0852,-0.1029,-0.0668,-0.064,-0.0613,-0.0631,-0.0891,-0.0892,-0.1447,-0.1453,-0.1457]}],[{"header":{"parameterUnit":"m.s-1","parameterCategory":2,"la1":30.2991,"la2":30.254,"lo1":-89.0895,"lo2":-89.0444,"dy":0.0017,"dx":0.0017,"nx":28,"ny":28,"refTime":"2024-07-19T03:00:00:Z","depth":"2","parameterNumber":2,"parameterNumberName":"U-component_of_CURRENTS"},"data":[0,0,0,0,0,0,0,0,0,0,0,0,0,0,0,0,0,0,0,0,0,0,0,0,0,0,0,0,0,0,0,0,0,0,0,0,0,0,0,0,0,0,0,0,0,0,0,0,0,0,0,0,0,0,0,0,0,0,0.3718,0.3719,0,0.3757,0.3756,0.3756,0.3766,0.3766,0.3767,0.3767,0.3772,0.3771,0.3771,0,0,0,0,0,0,0,0,0,0,0,0,0,0.3703,0.3702,0.3718,0.372,0.3721,0.3757,0.3756,0.3756,0.3765,0.3766,0.3767,0.3767,0.3772,0.3771,0.3771,0,0,0,0,0,0,0,0,0,0,0,0,0,0.3714,0.3702,0.3718,0.3736,0.3739,0.3757,0.3756,0.3756,0.3765,0.3766,0.3767,0.3768,0.3772,0.3771,0.3771,0.3752,0,0,0.3769,0.3769,0,0,0,0,0,0,0,0,0.3713,0.3713,0.3732,0.3735,0.3738,0.3764,0.3753,0.3756,0.3765,0.3746,0.3767,0.3768,0.3771,0.3771,0.3765,0.3752,0.3752,0.3769,0.3769,0.3769,0.3768,0,0,0,0,0,0,0,0.3712,0.3712,0.3725,0.3734,0.3737,0.376,0.3761,0.3753,0.3747,0.3748,0.3751,0.3768,0.3771,0.3765,0.3765,0.3753,0.3769,0.3769,0.3768,0.3768,0.3814,0.3815,0,0,0,0,0,0,0.3721,0.3711,0.3724,0.3727,0.3737,0.376,0.3761,0.3748,0.3748,0.3751,0.3767,0.3769,0.3766,0.3765,0.3765,0.3823,0.3769,0.3768,0.3768,0.3812,0.3814,0.3816,0,0,0,0,0,0,0.372,0.372,0.3723,0.3729,0.3732,0.376,0.3746,0.3749,0.3759,0.3764,0.3765,0.3778,0.3766,0.3766,0.3797,0.382,0.3768,0.3767,0.381,0.3813,0.3815,0.3888,0,0,0,0,0,0,0.3718,0.3719,0.3711,0.3728,0.3732,0.3751,0.3746,0.3749,0.3772,0.3774,0.3773,0.3774,0.3767,0.3798,0.3796,0.3819,0.3767,0.3809,0.3812,0.3814,0.3883,0.3892,0.39,0,0,0,0,0,0.3717,0.3713,0.3709,0.3712,0.3719,0.3752,0.3756,0.3773,0.3772,0.3782,0.3797,0.3774,0.3814,0.3799,0.3796,0.3819,0.3807,0.3811,0.3814,0.388,0.389,0.39,0,0,0,0,0,0,0.3712,0.3714,0.3711,0.3708,0.3736,0.3758,0.3771,0.378,0.3796,0.3797,0.3794,0.3797,0.3836,0.3817,0.3799,0.3842,0.3806,0.3809,0.3857,0.3867,0.3875,0.3898,0.3767,0,0,0,0,0,0.3704,0.3688,0.3715,0.3712,0.3728,0.3747,0.3762,0.3775,0.3797,0.3804,0.3807,0.3816,0.3844,0.3848,0.386,0.3875,0.3923,0.3888,0.3896,0.3903,0.3922,0.4067,0.4091,0.3827,0.3827,0.3827,0,0,0.3692,0.3702,0.3686,0.3709,0.3725,0.3755,0.3756,0.3785,0.3814,0.3801,0.3831,0.3847,0.3858,0.3892,0.3905,0.3879,0.3997,0.3908,0.3914,0.3929,0.4074,0.41,0.4123,0.3829,0.3829,0.3829,0,0,0.3693,0.368,0.368,0.3706,0.3748,0.3765,0.3779,0.3807,0.3825,0.3857,0.3872,0.3917,0.3916,0.3955,0.3969,0.4027,0.4046,0.4012,0.4062,0.4203,0.4227,0.4248,0.4318,0.4346,0.4006,0.4006,0.4006,0,0.3682,0.369,0.3692,0.3723,0.3754,0.3773,0.3809,0.3827,0.3863,0.3898,0.3876,0.3959,0.3956,0.4046,0.4062,0.4048,0.4111,0.4023,0.4218,0.424,0.4262,0.4328,0.4358,0.401,0.4009,0.4009,0.4009,0,0.37,0.3711,0.3725,0.3757,0.379,0.3822,0.3864,0.3896,0.3913,0.3942,0.4028,0.4048,0.4117,0.4105,0.4094,0.4234,0.4223,0.4224,0.4199,0.4293,0.4356,0.4385,0.4015,0.4014,0.4013,0.4012,0,0,0.3654,0.3718,0.3723,0.3763,0.3813,0.3853,0.3904,0.3977,0.4055,0.4064,0.4178,0.42,0.4237,0.4258,0.4267,0.435,0.4527,0.4344,0.4349,0.4422,0.481,0.4619,0.4633,0.4579,0.4585,0.459,0.4784,0,0.367,0.3732,0.3764,0.3835,0.3873,0.3924,0.3986,0.4053,0.4116,0.4226,0.4263,0.4366,0.429,0.4358,0.4433,0.4534,0.4613,0.4472,0.4699,0.4704,0.4534,0.4664,0.4286,0.4413,0.4813,0.4818,0.4822,0,0.3685,0.3725,0.379,0.3901,0.3928,0.398,0.4121,0.4191,0.433,0.4386,0.4487,0.4539,0.467,0.4601,0.4806,0.4728,0.4777,0.4815,0.4825,0.4647,0.457,0.4388,0.4452,0.4871,0.4867,0.4864,0.486,0,0.3671,0.3758,0.3816,0.3844,0.3956,0.4021,0.4104,0.4238,0.4332,0.4527,0.4624,0.4767,0.488,0.4981,0.5012,0.4967,0.5217,0.518,0.504,0.5026,0.4745,0.4694,0.534,0.534,0.5339,0.5339,0.5338,0,0.3686,0.3736,0.3819,0.3852,0.3953,0.4046,0.4187,0.4299,0.4477,0.4595,0.4729,0.4841,0.4991,0.5113,0.5126,0.5161,0.5325,0.5082,0.5088,0.475,0.47,0.5124,0.5096,0.5346,0.5344,0.5343,0.5342,0,0.3668,0.372,0.3797,0.391,0.3948,0.4037,0.421,0.4306,0.4504,0.468,0.4755,0.4973,0.5111,0.519,0.5366,0.5301,0.5357,0.5314,0.4858,0.4805,0.5045,0.5019,0.5238,0.5234,0.523,0.5227,0.5224,0,0.3664,0.3698,0.3807,0.384,0.3894,0.4016,0.4077,0.4285,0.438,0.4708,0.4772,0.5002,0.5059,0.5228,0.5181,0.5196,0.5276,0.4841,0.4674,0.5064,0.5049,0.5028,0.5008,0.4333,0.4323,0.4315,0.4309,0,0.3645,0.3688,0.3725,0.378,0.3849,0.394,0.4057,0.4146,0.4384,0.4514,0.4671,0.4773,0.4917,0.4765,0.4807,0.4744,0.4809,0.4675,0.5293,0.4384,0.4218,0.4199,0.4209,0.4238,0.4245,0.425,0.4254,0.4257,0.3606,0.3622,0.3653,0.3703,0.3763,0.384,0.3856,0.3971,0.4093,0.4225,0.4406,0.4394,0.4466,0.4311,0.4177,0.4082,0.4413,0.4228,0.4252,0.4284,0.4112,0.3944,0.3879,0.3884,0.3888,0.3892,0.3895,0,0.3512,0.3561,0.357,0.3592,0.3576,0.3685,0.3782,0.3722,0.374,0.3897,0.392,0.3606,0.3553,0.3604,0.3383,0.3391,0.3332,0.322,0.3142,0.3218,0.3284,0.3057,0.2547,0.2542,0.2538,0.2533,0,0,0.3519,0.3473,0.3455,0.3381,0.3392,0.3323,0.3354,0.3284,0.332,0.3237,0.3187,0.3394,0.3548,0.3013,0.2952,0.2728,0.2932,0.2593,0.3692,0.3682,0.3742,0.3903,0.3643,0,0,0,0,0]},{"header":{"parameterUnit":"m.s-1","parameterCategory":2,"la1":30.2991,"la2":30.254,"lo1":-89.0895,"lo2":-89.0444,"dy":0.0017,"dx":0.0017,"nx":28,"ny":28,"refTime":"2024-07-19T03:00:00:Z","depth":"2","parameterNumber":3,"parameterNumberName":"V-component_of_CURRENTS"},"data":[0,0,0,0,0,0,0,0,0,0,0,0,0,0,0,0,0,0,0,0,0,0,0,0,0,0,0,0,0,0,0,0,0,0,0,0,0,0,0,0,0,0,0,0,0,0,0,0,0,0,0,0,0,0,0,0,0,0,0.0328,0.0328,0,0.0274,0.0273,0.0272,0.0235,0.0235,0.0235,0.0235,0.0152,0.015,0.0148,0,0,0,0,0,0,0,0,0,0,0,0,0,0.0338,0.0338,0.0328,0.0328,0.0327,0.0274,0.0273,0.0272,0.0235,0.0235,0.0235,0.0235,0.0153,0.015,0.0148,0,0,0,0,0,0,0,0,0,0,0,0,0,0.0312,0.0339,0.0328,0.0304,0.0301,0.0274,0.0273,0.0272,0.0236,0.0235,0.0235,0.0235,0.0153,0.015,0.0147,0.013,0,0,0.0137,0.0136,0,0,0,0,0,0,0,0,0.0314,0.0312,0.0308,0.0306,0.0303,0.0263,0.0246,0.0223,0.0236,0.0259,0.0235,0.0235,0.0188,0.0182,0.0169,0.0126,0.0123,0.0137,0.0135,0.0134,0.0133,0,0,0,0,0,0,0,0.0316,0.0313,0.0305,0.0307,0.0304,0.0274,0.0271,0.0241,0.0223,0.0256,0.0254,0.0251,0.0186,0.0173,0.0167,0.0121,0.0137,0.0134,0.0132,0.0131,0.0078,0.0079,0,0,0,0,0,0,0.033,0.0316,0.0306,0.0303,0.031,0.0275,0.0271,0.0274,0.0223,0.0216,0.0251,0.025,0.0178,0.0171,0.0164,0.0172,0.0134,0.0131,0.0129,0.0078,0.0079,0.0079,0,0,0,0,0,0,0.033,0.033,0.0309,0.0309,0.0305,0.0275,0.0279,0.0273,0.0265,0.022,0.0212,0.025,0.0178,0.0169,0.0148,0.0167,0.0129,0.0126,0.0077,0.0078,0.0079,0.0167,0,0,0,0,0,0,0.0331,0.033,0.0333,0.031,0.0305,0.0305,0.0279,0.0272,0.0264,0.0261,0.0216,0.0208,0.0177,0.0154,0.0145,0.0162,0.0124,0.0077,0.0078,0.0079,0.0164,0.0171,0.0177,0,0,0,0,0,0.0332,0.0351,0.0334,0.0333,0.0312,0.0306,0.0301,0.0277,0.0264,0.0268,0.0237,0.021,0.0154,0.0152,0.0142,0.0158,0.0076,0.0077,0.0079,0.0161,0.0169,0.0177,0,0,0,0,0,0,0.0361,0.0348,0.033,0.0344,0.0327,0.0301,0.0303,0.0284,0.0261,0.026,0.0214,0.0204,0.0192,0.0161,0.016,0.0145,0.0111,0.011,0.0177,0.0185,0.0191,0.0226,0.0121,0,0,0,0,0,0.0367,0.0374,0.0354,0.0362,0.036,0.0329,0.0322,0.0308,0.0287,0.0277,0.0245,0.0212,0.0188,0.0177,0.0146,0.0139,0.0113,0.0143,0.0149,0.0155,0.0176,0.0164,0.0173,0.0083,0.0083,0.0083,0,0,0.0377,0.0373,0.0373,0.0367,0.0353,0.0365,0.0325,0.0326,0.0336,0.0271,0.0272,0.0231,0.0189,0.0182,0.0174,0.0161,0.0161,0.0157,0.0163,0.018,0.0167,0.0176,0.0184,0.0084,0.0084,0.0084,0,0,0.0414,0.0401,0.0422,0.0416,0.0406,0.0392,0.0397,0.0375,0.0365,0.0357,0.0315,0.0292,0.025,0.023,0.0214,0.0239,0.0194,0.0224,0.0291,0.028,0.0287,0.0294,0.0251,0.0254,0.0232,0.0232,0.0232,0,0.0423,0.0453,0.0426,0.0448,0.0456,0.0412,0.0444,0.0427,0.0399,0.0402,0.0371,0.0326,0.0279,0.0286,0.0289,0.0257,0.0233,0.0266,0.0291,0.0297,0.0302,0.0257,0.0258,0.0237,0.0236,0.0236,0.0235,0,0.0481,0.0499,0.0516,0.053,0.0532,0.0552,0.0533,0.0532,0.0511,0.0491,0.0487,0.0427,0.0411,0.038,0.0339,0.0357,0.032,0.0298,0.0276,0.0317,0.0266,0.0266,0.0243,0.0241,0.024,0.0239,0,0,0.0522,0.0551,0.0558,0.0589,0.0582,0.0604,0.0617,0.0628,0.0665,0.0609,0.0654,0.058,0.055,0.0529,0.0476,0.0453,0.0444,0.0398,0.0395,0.0367,0.0401,0.0329,0.0321,0.0432,0.0433,0.0434,0.0342,0,0.0577,0.0647,0.0644,0.0714,0.075,0.0726,0.0755,0.0755,0.0743,0.077,0.0702,0.0716,0.0608,0.0619,0.0575,0.0496,0.0452,0.047,0.0357,0.0353,0.0294,0.0322,0.0319,0.0235,0.0342,0.0342,0.0342,0,0.0643,0.0683,0.0763,0.0829,0.0847,0.0885,0.0946,0.0971,0.0972,0.0964,0.0947,0.0896,0.086,0.077,0.0643,0.0663,0.0539,0.0454,0.0448,0.0357,0.0283,0.0214,0.023,0.0341,0.0341,0.0341,0.0341,0,0.0708,0.0777,0.0854,0.0871,0.0927,0.0976,0.1017,0.1034,0.109,0.1109,0.1153,0.1073,0.1075,0.0923,0.0715,0.0697,0.0563,0.0519,0.0325,0.0317,0.0281,0.0269,0.0421,0.0421,0.0421,0.0422,0.0422,0,0.078,0.0845,0.0901,0.0946,0.106,0.1074,0.1198,0.1216,0.128,0.1374,0.128,0.1334,0.1118,0.1003,0.0787,0.0556,0.0614,0.0346,0.0301,0.0307,0.0298,0.0368,0.0363,0.0418,0.0419,0.042,0.042,0,0.0848,0.0876,0.0975,0.1058,0.1095,0.1189,0.1323,0.141,0.1457,0.1585,0.1609,0.1549,0.1397,0.113,0.0885,0.0669,0.0443,0.0332,0.0331,0.0287,0.0182,0.0183,0.0137,0.0134,0.0131,0.0129,0.0127,0,0.0887,0.0945,0.1061,0.1129,0.118,0.1312,0.1401,0.1487,0.1591,0.1719,0.1795,0.1699,0.1628,0.1221,0.0827,0.0434,0.039,0.017,0.0129,0.0199,0.0159,0.0164,0.0168,0.0103,0.0101,0.0099,0.0098,0,0.0966,0.101,0.109,0.1221,0.1334,0.1487,0.1634,0.1748,0.1873,0.1977,0.2071,0.2032,0.1639,0.124,0.0707,0.0443,0.0235,0.0125,0.0229,0.0173,0.0159,0.0122,0.0129,0.0085,0.0086,0.0087,0.0088,0.0088,0.1023,0.1095,0.1193,0.1327,0.1463,0.1667,0.1809,0.1966,0.2163,0.2328,0.2255,0.2184,0.1723,0.1036,0.0568,0.0098,0.0145,-0.0034,-0.0025,-0.0016,-0.0006,-0.0023,-0.0132,-0.0132,-0.0132,-0.0132,-0.0132,0,0.1075,0.118,0.1291,0.1459,0.1619,0.1694,0.1958,0.209,0.2321,0.2436,0.2463,0.1996,0.1549,0.1035,0.0327,-0.0094,-0.0107,-0.0238,-0.0164,-0.0148,-0.0134,-0.0127,-0.0288,-0.0289,-0.0291,-0.0292,0,0,0.1139,0.1251,0.1305,0.156,0.1693,0.1934,0.2107,0.2286,0.2422,0.2516,0.2468,0.2324,0.17,0.1143,0.055,0.014,0.0106,0.0058,0.0227,0.0401,0.0421,0.0021,0.0053,0,0,0,0,0]}],[{"header":{"parameterUnit":"m.s-1","parameterCategory":2,"la1":30.2991,"la2":30.254,"lo1":-89.0895,"lo2":-89.0444,"dy":0.0017,"dx":0.0017,"nx":28,"ny":28,"refTime":"2024-07-19T03:00:00:Z","depth":"4","parameterNumber":2,"parameterNumberName":"U-component_of_CURRENTS"},"data":[0,0,0,0,0,0,0,0,0,0,0,0,0,0,0,0,0,0,0,0,0,0,0,0,0,0,0,0,0,0,0,0,0,0,0,0,0,0,0,0,0,0,0,0,0,0,0,0,0,0,0,0,0,0,0,0,0,0,0.2134,0.2136,0,0.2217,0.2217,0.2218,0.2282,0.2283,0.2284,0.2285,0.2372,0.2374,0.2375,0,0,0,0,0,0,0,0,0,0,0,0,0,0.204,0.2041,0.2134,0.2136,0.2137,0.2217,0.2217,0.2218,0.2282,0.2283,0.2284,0.2285,0.2372,0.2374,0.2375,0,0,0,0,0,0,0,0,0,0,0,0,0,0.2094,0.2042,0.2134,0.2182,0.2187,0.2216,0.2217,0.2218,0.2282,0.2283,0.2285,0.2286,0.2371,0.2374,0.2376,0.2358,0,0,0.2382,0.2383,0,0,0,0,0,0,0,0,0.2091,0.2097,0.2173,0.2178,0.2185,0.2244,0.2217,0.2267,0.2281,0.2241,0.2285,0.2287,0.2332,0.2337,0.2343,0.2363,0.2366,0.2382,0.2383,0.2384,0.2385,0,0,0,0,0,0,0,0.2087,0.2093,0.2163,0.2175,0.2182,0.2202,0.2211,0.2226,0.2274,0.2245,0.2251,0.2266,0.2334,0.2341,0.2346,0.2368,0.2382,0.2384,0.2385,0.2386,0.2518,0.252,0,0,0,0,0,0,0.2083,0.209,0.216,0.2165,0.2145,0.2203,0.2212,0.222,0.2274,0.2285,0.2265,0.2269,0.2337,0.2343,0.2349,0.2453,0.2384,0.2386,0.2387,0.2516,0.2519,0.2521,0,0,0,0,0,0,0.2081,0.2088,0.2157,0.2133,0.2144,0.2203,0.2211,0.2221,0.228,0.229,0.23,0.2321,0.2338,0.2346,0.2398,0.2452,0.2387,0.2389,0.2513,0.2517,0.252,0.2582,0,0,0,0,0,0,0.2077,0.2086,0.2123,0.2133,0.2146,0.2205,0.2211,0.2222,0.2286,0.2294,0.234,0.2346,0.234,0.2395,0.24,0.2454,0.2391,0.2511,0.2515,0.2519,0.2578,0.2588,0.2596,0,0,0,0,0,0.2073,0.2104,0.2124,0.2135,0.2183,0.2207,0.2216,0.2259,0.2288,0.2318,0.2347,0.2348,0.2426,0.2398,0.2403,0.2459,0.2509,0.2514,0.2519,0.2573,0.2586,0.2596,0,0,0,0,0,0,0.2074,0.2114,0.2136,0.2177,0.2208,0.2221,0.2264,0.2289,0.2335,0.236,0.2364,0.2372,0.2448,0.2441,0.241,0.2512,0.2473,0.248,0.2513,0.2524,0.2534,0.2592,0.2393,0,0,0,0,0,0.2092,0.2135,0.216,0.2199,0.2219,0.2252,0.2282,0.231,0.2338,0.2364,0.2395,0.2431,0.2464,0.2484,0.2515,0.2555,0.2564,0.2601,0.261,0.2618,0.2671,0.271,0.2728,0.2538,0.2538,0.2538,0,0,0.2107,0.2134,0.2163,0.2206,0.2235,0.2267,0.2275,0.2331,0.2373,0.2364,0.2448,0.2474,0.2486,0.2542,0.2574,0.2546,0.2669,0.2624,0.263,0.2681,0.2718,0.2736,0.2752,0.2541,0.2541,0.254,0,0,0.2131,0.2178,0.2217,0.2246,0.2304,0.2319,0.2347,0.2392,0.2436,0.2503,0.2514,0.2571,0.2622,0.2636,0.2647,0.2726,0.2726,0.2747,0.2831,0.2866,0.2883,0.2897,0.2896,0.291,0.2739,0.2739,0.2739,0,0.2155,0.219,0.2232,0.2266,0.2303,0.2347,0.2386,0.2427,0.249,0.2536,0.255,0.2665,0.2669,0.2732,0.2771,0.2749,0.2768,0.2778,0.2879,0.2893,0.2907,0.2903,0.2918,0.2742,0.2742,0.2742,0.2741,0,0.2181,0.2232,0.2255,0.2314,0.2363,0.2403,0.2458,0.2523,0.2589,0.2635,0.2752,0.2771,0.2839,0.2848,0.2842,0.2946,0.2925,0.289,0.2847,0.293,0.292,0.2934,0.2748,0.2746,0.2745,0.2744,0,0,0.2177,0.2258,0.2275,0.2302,0.2394,0.2417,0.2514,0.2596,0.266,0.2762,0.2847,0.2938,0.2984,0.3004,0.3002,0.3049,0.3136,0.3037,0.3037,0.3032,0.3216,0.3029,0.3026,0.313,0.3134,0.3137,0.3155,0,0.2188,0.2243,0.2298,0.2363,0.2393,0.2475,0.2545,0.264,0.2734,0.2823,0.2907,0.2994,0.3026,0.3067,0.313,0.3156,0.3187,0.3135,0.3144,0.3144,0.2965,0.3041,0.3149,0.3166,0.3169,0.3171,0.3173,0,0.2191,0.223,0.2294,0.2372,0.2396,0.2456,0.2584,0.2648,0.2793,0.2889,0.3026,0.3081,0.321,0.319,0.3323,0.3302,0.329,0.3291,0.3289,0.312,0.2986,0.3077,0.3198,0.3196,0.3194,0.3193,0.3191,0,0.2137,0.2222,0.2271,0.2301,0.2402,0.247,0.2536,0.2685,0.2758,0.2942,0.3018,0.3185,0.3269,0.3336,0.3392,0.3371,0.3496,0.3426,0.3235,0.3219,0.3352,0.3337,0.349,0.349,0.349,0.349,0.349,0,0.21,0.2137,0.2253,0.2275,0.2341,0.2438,0.2538,0.2645,0.28,0.2895,0.3045,0.3131,0.3326,0.3405,0.3424,0.3401,0.352,0.3289,0.3231,0.337,0.3357,0.3358,0.3343,0.3491,0.3491,0.3491,0.349,0,0.2016,0.2094,0.2148,0.2273,0.2316,0.2368,0.2525,0.2579,0.2758,0.2883,0.295,0.315,0.329,0.3402,0.3511,0.3413,0.3405,0.3339,0.3497,0.3441,0.3085,0.3073,0.3124,0.3118,0.3113,0.3109,0.3105,0,0.1954,0.1982,0.2128,0.2156,0.2219,0.2316,0.237,0.2563,0.2637,0.2866,0.2895,0.309,0.3212,0.3208,0.3349,0.3367,0.3318,0.3253,0.318,0.3119,0.3058,0.3054,0.3049,0.3097,0.3096,0.3094,0.3093,0,0.1837,0.1926,0.1975,0.2045,0.2116,0.2168,0.2274,0.2313,0.2527,0.272,0.2811,0.2869,0.3001,0.311,0.3159,0.3151,0.3278,0.3199,0.3208,0.3139,0.3086,0.303,0.3031,0.3075,0.3078,0.308,0.3081,0,0.175,0.1767,0.1851,0.1898,0.1971,0.1972,0.2055,0.2141,0.2244,0.2527,0.2568,0.2768,0.3002,0.2993,0.3029,0.3042,0.298,0.2838,0.2864,0.2885,0.2802,0.27,0.2549,0,0,0,0,0,0.1631,0.1639,0.1674,0.1719,0.1785,0.1833,0.1953,0.2046,0.2281,0.2296,0.2437,0.2558,0.2649,0.2736,0.2703,0.2884,0.2963,0.2823,0.2805,0.2977,0.2998,0.2924,0,0,0,0,0,0,0.1555,0.1587,0.1621,0.1558,0.1556,0.1606,0.1676,0.183,0.1853,0.2116,0.2191,0.2401,0.2534,0.2687,0.2667,0.2695,0.2621,0.2975,0.2967,0.2966,0.2984,0.3001,0.2932,0,0,0,0,0]},{"header":{"parameterUnit":"m.s-1","parameterCategory":2,"la1":30.2991,"la2":30.254,"lo1":-89.0895,"lo2":-89.0444,"dy":0.0017,"dx":0.0017,"nx":28,"ny":28,"refTime":"2024-07-19T03:00:00:Z","depth":"4","parameterNumber":3,"parameterNumberName":"V-component_of_CURRENTS"},"data":[0,0,0,0,0,0,0,0,0,0,0,0,0,0,0,0,0,0,0,0,0,0,0,0,0,0,0,0,0,0,0,0,0,0,0,0,0,0,0,0,0,0,0,0,0,0,0,0,0,0,0,0,0,0,0,0,0,0,0.0088,0.0088,0,0.0047,0.0047,0.0046,0.0023,0.0023,0.0023,0.0023,-0.0041,-0.0042,-0.0044,0,0,0,0,0,0,0,0,0,0,0,0,0,0.0084,0.0085,0.0088,0.0088,0.0087,0.0047,0.0047,0.0046,0.0023,0.0023,0.0023,0.0023,-0.004,-0.0042,-0.0044,0,0,0,0,0,0,0,0,0,0,0,0,0,0.0069,0.0085,0.0088,0.0071,0.0069,0.0047,0.0047,0.0046,0.0023,0.0023,0.0023,0.0023,-0.004,-0.0042,-0.0044,-0.0057,0,0,-0.0052,-0.0053,0,0,0,0,0,0,0,0,0.007,0.0069,0.0074,0.0072,0.007,0.004,0.0022,0.001,0.0023,0.004,0.0023,0.0022,-0.0016,-0.002,-0.0027,-0.006,-0.0063,-0.0052,-0.0054,-0.0055,-0.0055,0,0,0,0,0,0,0,0.0071,0.007,0.0072,0.0073,0.0071,0.0043,0.0042,0.0019,0.0013,0.0039,0.0037,0.0032,-0.0017,-0.0025,-0.0029,-0.0064,-0.0052,-0.0054,-0.0056,-0.0057,-0.0111,-0.0111,0,0,0,0,0,0,0.008,0.0072,0.0073,0.0071,0.0069,0.0044,0.0042,0.005,0.0014,0.0008,0.0033,0.0032,-0.0021,-0.0026,-0.0031,-0.0038,-0.0055,-0.0057,-0.0058,-0.0111,-0.0111,-0.0111,0,0,0,0,0,0,0.008,0.0081,0.0075,0.0069,0.0067,0.0045,0.0053,0.0049,0.0046,0.0009,0.0003,0.0034,-0.0021,-0.0028,-0.0049,-0.0041,-0.0058,-0.006,-0.0111,-0.0111,-0.0111,-0.0057,0,0,0,0,0,0,0.008,0.0081,0.009,0.0071,0.0067,0.0071,0.0053,0.0048,0.0043,0.0041,0.0008,0.0002,-0.0022,-0.0045,-0.0051,-0.0044,-0.0062,-0.0111,-0.0111,-0.0111,-0.0059,-0.0056,-0.0052,0,0,0,0,0,0.008,0.0097,0.0091,0.0091,0.0081,0.0071,0.0067,0.005,0.0043,0.0046,0.002,0.0003,-0.005,-0.0047,-0.0054,-0.0048,-0.0111,-0.0111,-0.0111,-0.0061,-0.0056,-0.0053,0,0,0,0,0,0,0.0095,0.0095,0.0089,0.0103,0.0091,0.0067,0.0069,0.0056,0.0038,0.0038,0.0003,-0.0005,-0.0021,-0.0044,-0.004,-0.0065,-0.0083,-0.0084,-0.0042,-0.0038,-0.0035,-0.0007,-0.0064,0,0,0,0,0,0.0104,0.012,0.0106,0.0116,0.0114,0.0092,0.0086,0.0076,0.0057,0.005,0.0026,-0.0001,-0.0028,-0.0039,-0.0064,-0.0077,-0.0108,-0.0078,-0.0075,-0.0072,-0.0055,-0.0104,-0.0103,-0.0111,-0.0111,-0.0111,0,0,0.0111,0.0113,0.0121,0.012,0.011,0.0115,0.0089,0.0088,0.009,0.0045,0.0042,0.001,-0.0029,-0.0044,-0.0053,-0.006,-0.0089,-0.0072,-0.0069,-0.0053,-0.0104,-0.0103,-0.0102,-0.0111,-0.0111,-0.0111,0,0,0.0132,0.0137,0.0156,0.0152,0.0144,0.0134,0.0138,0.0121,0.0114,0.0105,0.0069,0.0042,0.0012,-0.0019,-0.0038,-0.0032,-0.0071,-0.0039,0.0002,-0.0046,-0.0045,-0.0045,-0.0094,-0.0099,-0.0036,-0.0036,-0.0036,0,0.014,0.0163,0.0157,0.0169,0.0173,0.0148,0.0164,0.0152,0.013,0.0127,0.0114,0.0064,0.0024,0.0001,0.0002,-0.0023,-0.0055,-0.0008,-0.004,-0.0041,-0.0042,-0.0092,-0.0098,-0.0034,-0.0034,-0.0034,-0.0034,0,0.0171,0.0188,0.0198,0.0213,0.0216,0.0225,0.0212,0.0212,0.0202,0.0186,0.017,0.0117,0.0089,0.0067,0.0037,0.0014,-0.0008,-0.0032,-0.0047,-0.0037,-0.0092,-0.0099,-0.003,-0.0031,-0.0032,-0.0032,0,0,0.0197,0.0217,0.0224,0.0241,0.0242,0.0252,0.026,0.0261,0.0269,0.0244,0.0248,0.0195,0.0171,0.0147,0.01,0.006,0.0012,0.0022,0.0018,-0.0019,-0.0092,-0.0083,-0.0091,-0.0014,-0.0015,-0.0015,-0.0131,0,0.0224,0.0265,0.0266,0.0305,0.0326,0.0315,0.033,0.0328,0.031,0.0306,0.0258,0.0243,0.0199,0.0186,0.014,0.0047,-0.0001,0.0046,-0.0101,-0.0105,-0.0093,-0.0097,-0.0017,-0.0136,-0.0138,-0.0139,-0.014,0,0.0255,0.0284,0.033,0.0366,0.0376,0.0397,0.0421,0.0426,0.0405,0.0398,0.0373,0.0327,0.0274,0.0231,0.0095,0.013,0.003,-0.0045,-0.0052,-0.0061,-0.0108,-0.0147,-0.0153,-0.0152,-0.0151,-0.015,-0.015,0,0.029,0.0329,0.0374,0.0384,0.0419,0.0444,0.0462,0.0458,0.0484,0.0453,0.0459,0.0388,0.0366,0.0238,0.0092,0.0088,-0.0064,-0.0099,-0.0187,-0.0189,-0.0186,-0.0185,-0.0201,-0.0201,-0.0201,-0.0201,-0.02,0,0.0322,0.0357,0.0398,0.0425,0.0492,0.0494,0.0555,0.0553,0.0569,0.061,0.0513,0.0517,0.037,0.0264,0.0111,-0.0046,-0.0055,-0.0173,-0.0213,-0.0163,-0.0158,-0.0192,-0.019,-0.0205,-0.0204,-0.0203,-0.0202,0,0.0351,0.0371,0.0431,0.0487,0.0512,0.0561,0.0641,0.0682,0.0673,0.0717,0.0718,0.063,0.0502,0.0327,0.0124,-0.0002,-0.0175,-0.0236,-0.0162,-0.0197,-0.0279,-0.0272,-0.0349,-0.035,-0.035,-0.0351,-0.0351,0,0.0362,0.0398,0.0486,0.0533,0.0564,0.0642,0.0707,0.0745,0.0795,0.0788,0.0816,0.0709,0.063,0.0355,0.0154,-0.0133,-0.0176,-0.0284,-0.0285,-0.026,-0.0292,-0.0285,-0.0278,-0.0352,-0.0352,-0.0352,-0.0352,0,0.0391,0.0429,0.0487,0.0586,0.0666,0.0761,0.0848,0.0898,0.0944,0.0942,0.0918,0.0762,0.062,0.0395,0.0182,-0.0034,-0.0225,-0.029,-0.0291,-0.0293,-0.0265,-0.0294,-0.0286,-0.0354,-0.0353,-0.0353,-0.0353,0,0.0415,0.0462,0.0541,0.0633,0.0738,0.0838,0.0885,0.0955,0.101,0.1011,0.101,0.0824,0.0747,0.0444,0.0237,0.0043,-0.0021,-0.0112,-0.0124,-0.0125,-0.0028,0.0044,0.0023,0,0,0,0,0,0.0427,0.0486,0.0573,0.0681,0.0793,0.0854,0.0963,0.1003,0.1056,0.1067,0.1048,0.0915,0.0624,0.0484,0.0297,0.0193,-0.0082,-0.0042,-0.02,-0.0363,-0.0361,-0.0284,0,0,0,0,0,0,0.0437,0.0517,0.0571,0.071,0.0789,0.0917,0.0989,0.1024,0.1031,0.105,0.0911,0.0851,0.0576,0.0753,0.0295,0.0231,0.0096,-0.0168,-0.0174,-0.0364,-0.0362,-0.036,-0.028,0,0,0,0,0]}]]